Regional Weather Roundup
Issued by NWS

Home | Current Version | Previous Version | Text Only | Print | Product List | Glossary Off
Versions: 1 2 3 4 5 6 7 8 9 10 11 12 13 14 15 16 17 18 19 20 21 22 23 24 25 26 27 28 29 30 31 32 33 34 35 36 37 38 39 40 41 42 43 44 45 46 47 48 49 50

000
ASUS43 KTOP 152008
RWRKS

WEATHER ROUNDUP FOR KANSAS
NATIONAL WEATHER SERVICE GOODLAND KS
200 PM CST SUN JAN 15 2017

NOTE:  "FAIR" INDICATES FEW OR NO CLOUDS BELOW 12,000 FEET WITH NO
SIGNIFICANT WEATHER AND/OR OBSTRUCTIONS TO VISIBILITY.

KSZ001>006-013>018-027>032-041>047-152100-
NORTHWEST KANSAS

CITY           SKY/WX    TMP DP  RH WIND       PRES   REMARKS
GOODLAND       MIX PCPN  31  30  96 E6        30.02F FOG
HAYS           MIX PCPN  30  28  92 E8        30.11F
HILL CITY      CLOUDY    30  30 100 E7        30.11F FOG
RUSSELL        FRZ RAIN  30  29  96 E7        30.10F FOG
$$

KSZ061>065-074>080-084>089-152100-
SOUTHWEST KANSAS

CITY           SKY/WX    TMP DP  RH WIND       PRES   REMARKS
DODGE CITY     MIX PCPN  31  30  96 E5        30.07F FOG
ELKHART          N/A     30  24  78 N6          N/A
GARDEN CITY    CLOUDY    31  29  92 E7        30.04F
GREAT BEND     MIX PCPN  31  29  92 NE9       30.10F FOG
LIBERAL        CLOUDY    32  27  80 CALM      30.03F
PRATT          MIX PCPN  29  28  96 CALM      30.09F
$$

KSZ066>073-081>083-090>101-152100-
SOUTHEAST KANSAS

CITY           SKY/WX    TMP DP  RH WIND       PRES   REMARKS
CHANUTE        LGT RAIN  35  33  92 E9        30.17F FOG
HUTCHINSON     FRZ DRZL  32  31  96 NE6       30.13F FOG
MEDICINE LODGE   N/A     32  31  96 E5        30.08F
NEWTON         MIX PCPN  32  31  96 E8        30.13F
PARSONS        CLOUDY    37  36  96 E5        30.17F
WICHITA INTL   RAIN      34  33  96 E7        30.13F FOG
WICHITA JABRA  MIX PCPN  32  32 100 E7        30.13F
WICHITA MCCONL LGT RAIN  33  32  96 CALM      30.13F
WINFIELD       CLOUDY    35  34  96 NE9       30.13F
$$

KSZ007>012-019>026-033>040-048>060-102>105-152100-
NORTHEAST KANSAS

CITY           SKY/WX    TMP DP  RH WIND       PRES   REMARKS
CONCORDIA      FRZ RAIN  30  30 100 E7        30.16F FOG
EMPORIA        CLOUDY    32  31  96 E6        30.18F FOG
LAWRENCE       LGT RAIN  33  32  96 E8        30.21F FOG
MANHATTAN      MIX PCPN  32  31  96 NE7       30.18F FOG
MARYSVILLE     MIX PCPN  32  30  93 SE5       30.20F
OLATHE IND     FRZ RAIN  32  31  96 E8        30.19F FOG
OLATHE EXE     FRZ RAIN  31  31 100 E7        30.20F
SALINA         FRZ RAIN  30  30 100 CALM      30.18F FOG
TOPEKA BILLARD FRZ RAIN  33  30  88 MISG      30.22S FOG
TOPEKA FORBES  RAIN      34  31  88 E3        30.20S FOG
$$




USA.gov is the U.S. government's official web portal to all federal, state and local government web resources and services.